2017-081B

Last updated on Mon Dec 18 2017 00:15:03 GMT+0000 (Coordinated Universal Time)

1 43064U 17081B 17351.85228049 .01528903 12011-4 48463-3 0 9994 2 43064 51.6442 203.2923 0026489 69.9593 290.4332 16.24554778 82

Satellite not in orbit